Location: Boissi�res
(45.2500°N, 2.3667°E)
Time: 18:27:39
(UTC+00:00)

Cosmos 1844 - Pass Details

Date: 03 March 2021
Orbit: 822 x 868 km, 70.9° (Epoch: 18 April)

Event Time Altitude Azimuth Distance (km) Brightness Sun altitude
Rises 18:33:24 0° 338° (NNW) 3,460 7.2 -10.1°
Reaches altitude 10° 18:36:01 10° 345° (NNW) 2,515 6.4 -10.5°
Maximum altitude 18:41:31 43° 56° (NE) 1,195 4.1 -11.5°
Enters shadow 18:46:44 11° 127° (SE) 2,412 5.6 -12.4°
